When you browse on this site, cookies collect data to enhance your experience and personalize the content and advertising you see.
Visit our Privacy Policy to learn more. By continuing to use the site, you agree to this use of cookies and data.
  • In Spain
  • List of Countries
  • For 7 days
  • Water Temperature
  • Weather Map
  • Weather Widgets
  • user-avatar
    Login

    Hourly Weather Santiago del Estero

    Today, 17 February, Monday

    Time Temperature Precipitation Wind Pressure Humidity
    00:00 +32°C° 0 mm 4 mps 734 mmHg 72%
    01:00 +32°C° 0 mm 4 mps 734 mmHg 72%
    02:00 +30°C° 0 mm 4 mps 733 mmHg 73%
    03:00 +30°C° 0 mm 4 mps 733 mmHg 72%
    04:00 +30°C° 0 mm 5 mps 733 mmHg 71%
    05:00 +30°C° 0 mm 5 mps 733 mmHg 70%
    06:00 +30°C° 0 mm 5 mps 733 mmHg 69%
    07:00 +32°C° 0 mm 6 mps 733 mmHg 68%
    08:00 +32°C° 0 mm 7 mps 733 mmHg 67%
    09:00 +34°C° 0 mm 7 mps 733 mmHg 60%
    10:00 +36°C° 0 mm 7 mps 733 mmHg 54%
    11:00 +39°C° 0 mm 7 mps 733 mmHg 47%
    12:00 +40°C° 0 mm 7 mps 732 mmHg 43%
    13:00 +41°C° 0 mm 8 mps 732 mmHg 38%
    14:00 +44°C° 0 mm 8 mps 732 mmHg 34%
    15:00 +43°C° 0 mm 8 mps 732 mmHg 36%
    16:00 +41°C° 0 mm 7 mps 732 mmHg 38%
    17:00 +41°C° 0 mm 7 mps 731 mmHg 40%
    18:00 +39°C° 0 mm 5 mps 732 mmHg 44%
    19:00 +36°C° 0 mm 4 mps 732 mmHg 48%
    20:00 +35°C° 0 mm 3 mps 733 mmHg 52%
    21:00 +34°C° 0 mm 3 mps 733 mmHg 54%
    22:00 +34°C° 0 mm 2 mps 734 mmHg 56%
    23:00 +32°C° 0 mm 2 mps 734 mmHg 58%

    Tomorrow, 18 February, Tuesday

    Time Temperature Precipitation Wind Pressure Humidity
    00:00 +32°C° 0.6 mm 4 mps 735 mmHg 64%
    01:00 +29°C° 0.6 mm 7 mps 735 mmHg 70%
    02:00 +28°C° 0.6 mm 9 mps 736 mmHg 77%
    03:00 +27°C° 0.2 mm 8 mps 738 mmHg 72%
    04:00 +26°C° 0.2 mm 7 mps 739 mmHg 67%
    05:00 +24°C° 0.2 mm 7 mps 740 mmHg 62%
    06:00 +26°C° 0 mm 6 mps 741 mmHg 61%
    07:00 +26°C° 0 mm 6 mps 742 mmHg 59%
    08:00 +26°C° 0 mm 6 mps 743 mmHg 57%
    09:00 +27°C° 0 mm 5 mps 743 mmHg 55%
    10:00 +27°C° 0 mm 5 mps 744 mmHg 53%
    11:00 +27°C° 0 mm 4 mps 744 mmHg 52%
    12:00 +27°C° 0 mm 4 mps 744 mmHg 50%
    13:00 +28°C° 0 mm 3 mps 743 mmHg 48%
    14:00 +28°C° 0 mm 3 mps 743 mmHg 47%
    15:00 +28°C° 0 mm 3 mps 742 mmHg 45%
    16:00 +29°C° 0 mm 3 mps 741 mmHg 43%
    17:00 +29°C° 0 mm 3 mps 741 mmHg 41%
    18:00 +28°C° 0 mm 3 mps 741 mmHg 43%
    19:00 +27°C° 0 mm 3 mps 741 mmHg 45%
    20:00 +25°C° 0 mm 2 mps 741 mmHg 47%
    21:00 +25°C° 0 mm 2 mps 741 mmHg 51%
    22:00 +24°C° 0 mm 1 mps 741 mmHg 54%
    23:00 +23°C° 0 mm 1 mps 741 mmHg 57%

    Day after tomorrow, 19 February, Wednesday

    Time Temperature Precipitation Wind Pressure Humidity
    00:00 +23°C° 0 mm 1 mps 741 mmHg 57%
    01:00 +23°C° 0 mm 1 mps 740 mmHg 58%
    02:00 +23°C° 0 mm 1 mps 740 mmHg 58%
    03:00 +23°C° 0 mm 1 mps 740 mmHg 58%
    04:00 +22°C° 0 mm 1 mps 739 mmHg 57%
    05:00 +22°C° 0 mm 1 mps 739 mmHg 57%
    06:00 +24°C° 0 mm 1 mps 739 mmHg 55%
    07:00 +25°C° 0 mm 1 mps 740 mmHg 53%
    08:00 +27°C° 0 mm 1 mps 740 mmHg 51%
    09:00 +28°C° 0 mm 2 mps 740 mmHg 51%
    10:00 +30°C° 0 mm 2 mps 740 mmHg 51%
    11:00 +31°C° 0 mm 3 mps 740 mmHg 51%
    12:00 +33°C° 0 mm 3 mps 739 mmHg 50%
    13:00 +34°C° 0 mm 2 mps 739 mmHg 48%
    14:00 +34°C° 0 mm 2 mps 738 mmHg 47%
    15:00 +34°C° 0 mm 2 mps 738 mmHg 47%
    16:00 +34°C° 0 mm 2 mps 737 mmHg 48%
    17:00 +34°C° 0 mm 2 mps 737 mmHg 48%
    18:00 +32°C° 0 mm 2 mps 737 mmHg 54%
    19:00 +30°C° 0 mm 1 mps 738 mmHg 60%
    20:00 +28°C° 0 mm 1 mps 738 mmHg 65%
    21:00 +28°C° 0 mm 1 mps 739 mmHg 68%
    22:00 +27°C° 0 mm 1 mps 739 mmHg 71%
    23:00 +27°C° 0 mm 1 mps 740 mmHg 74%

    20 February, Thursday

    Time Temperature Precipitation Wind Pressure Humidity
    00:00 +27°C° 0 mm 1 mps 740 mmHg 77%
    01:00 +26°C° 0 mm 1 mps 740 mmHg 80%
    02:00 +24°C° 0 mm 0 mps 740 mmHg 82%
    03:00 +26°C° 0 mm 1 mps 740 mmHg 83%
    04:00 +26°C° 0 mm 1 mps 740 mmHg 83%
    05:00 +25°C° 0 mm 1 mps 740 mmHg 83%
    06:00 +27°C° 0 mm 1 mps 741 mmHg 78%
    07:00 +28°C° 0 mm 1 mps 741 mmHg 72%
    08:00 +29°C° 0 mm 2 mps 742 mmHg 66%
    09:00 +31°C° 0 mm 2 mps 742 mmHg 56%
    10:00 +34°C° 0 mm 3 mps 743 mmHg 46%
    11:00 +36°C° 0 mm 4 mps 743 mmHg 36%
    12:00 +37°C° 0 mm 5 mps 743 mmHg 33%
    13:00 +39°C° 0 mm 5 mps 742 mmHg 30%
    14:00 +39°C° 0 mm 6 mps 742 mmHg 28%
    15:00 +39°C° 0 mm 6 mps 742 mmHg 29%
    16:00 +38°C° 0 mm 6 mps 741 mmHg 30%
    17:00 +36°C° 0 mm 6 mps 741 mmHg 30%
    18:00 +34°C° 0 mm 5 mps 741 mmHg 34%
    19:00 +32°C° 0 mm 4 mps 742 mmHg 38%
    20:00 +29°C° 0 mm 3 mps 743 mmHg 42%
    21:00 +28°C° 0 mm 4 mps 743 mmHg 44%
    22:00 +28°C° 0 mm 4 mps 744 mmHg 47%
    23:00 +27°C° 0 mm 5 mps 745 mmHg 50%

    21 February, Friday

    Time Temperature Precipitation Wind Pressure Humidity
    00:00 +26°C° 0 mm 4 mps 745 mmHg 49%
    01:00 +26°C° 0 mm 4 mps 745 mmHg 49%
    02:00 +25°C° 0 mm 3 mps 745 mmHg 48%
    09:00 +25°C° 0 mm 3 mps 748 mmHg 35%
    10:00 +27°C° 0 mm 3 mps 748 mmHg 31%
    11:00 +28°C° 0 mm 3 mps 748 mmHg 26%
    12:00 +30°C° 0 mm 3 mps 747 mmHg 26%
    13:00 +31°C° 0 mm 3 mps 746 mmHg 25%
    14:00 +32°C° 0 mm 2 mps 746 mmHg 24%
    15:00 +33°C° 0 mm 3 mps 745 mmHg 25%
    16:00 +33°C° 0 mm 3 mps 744 mmHg 25%
    17:00 +33°C° 0 mm 3 mps 744 mmHg 26%
    18:00 +30°C° 0 mm 2 mps 744 mmHg 29%
    19:00 +28°C° 0 mm 2 mps 744 mmHg 33%
    20:00 +26°C° 0 mm 2 mps 745 mmHg 36%
    21:00 +25°C° 0 mm 2 mps 745 mmHg 37%
    22:00 +24°C° 0 mm 2 mps 745 mmHg 38%
    23:00 +23°C° 0 mm 2 mps 746 mmHg 40%

    22 February, Saturday

    Time Temperature Precipitation Wind Pressure Humidity
    00:00 +21°C° 0 mm 2 mps 745 mmHg 41%
    01:00 +21°C° 0 mm 2 mps 745 mmHg 43%
    02:00 +21°C° 0 mm 1 mps 745 mmHg 45%
    03:00 +21°C° 0 mm 1 mps 745 mmHg 45%
    04:00 +21°C° 0 mm 1 mps 745 mmHg 46%
    05:00 +20°C° 0 mm 1 mps 745 mmHg 46%
    06:00 +21°C° 0 mm 2 mps 745 mmHg 45%
    07:00 +23°C° 0 mm 2 mps 746 mmHg 43%
    08:00 +24°C° 0 mm 3 mps 746 mmHg 42%
    09:00 +26°C° 0 mm 3 mps 746 mmHg 38%
    10:00 +28°C° 0 mm 3 mps 746 mmHg 34%
    11:00 +30°C° 0 mm 4 mps 746 mmHg 30%
    12:00 +32°C° 0 mm 4 mps 745 mmHg 28%
    13:00 +33°C° 0 mm 4 mps 744 mmHg 27%
    14:00 +34°C° 0 mm 4 mps 744 mmHg 26%
    15:00 +34°C° 0 mm 4 mps 743 mmHg 26%
    16:00 +34°C° 0 mm 4 mps 742 mmHg 27%
    17:00 +34°C° 0 mm 4 mps 741 mmHg 27%
    18:00 +32°C° 0 mm 4 mps 742 mmHg 31%
    19:00 +29°C° 0 mm 3 mps 742 mmHg 35%
    20:00 +27°C° 0 mm 3 mps 742 mmHg 38%
    21:00 +26°C° 0 mm 3 mps 742 mmHg 41%
    22:00 +25°C° 0 mm 3 mps 743 mmHg 43%
    23:00 +24°C° 0 mm 3 mps 743 mmHg 45%
    Show more